ECMWFNIL_850_temp_057.txt.gz
Temp
13 14 14 14 14 13 13 14 14 13 13 13 13 13 12 12 12 13 13 13 13 12 12 12 12 12 12 12 12 12 12 12 12 12 12 12 12 12 11 11 11 12
12 13 13 13 13 13 13 14 14 14 13 12 12 13 12 12 12 13 13 12 12 12 12 12 12 12 12 12 12 12 12 12 12 12 12 12 12 12 11 11 12 12
10 11 12 12 12 13 13 14 14 14 13 13 12 12 12 12 13 13 13 12 12 12 12 12 12 12 11 11 11 11 12 12 12 12 12 12 12 12 11 12 12 12
10 11 12 12 12 12 12 13 13 14 13 13 12 12 12 12 13 13 13 12 12 12 12 12 12 12 11 11 12 12 12 12 12 12 12 12 12 12 12 12 12 12
11 11 11 12 12 12 12 13 13 13 13 12 12 12 12 12 13 13 13 13 13 13 12 12 12 12 12 12 12 12 12 12 12 12 12 12 12 12 12 12 12 12
10 11 11 11 11 12 12 13 13 13 12 12 12 12 11 12 13 13 13 13 13 13 12 12 12 12 12 12 12 12 12 12 12 12 12 12 12 12 12 12 12 12
10 10 11 11 11 11 11 12 13 12 12 12 12 12 11 12 12 13 13 13 13 12 12 12 12 12 12 12 12 12 12 12 12 12 12 12 12 12 12 12 12 12
10 10 11 11 11 11 10 11 12 12 12 12 12 11 11 12 12 13 13 13 13 12 12 13 13 13 13 13 12 12 12 12 12 12 12 12 12 12 12 12 12 12
10 10 11 11 11 11 11 11 12 12 12 12 12 11 11 12 13 13 13 13 13 12 12 12 13 13 13 13 13 12 12 12 12 12 12 12 12 12 12 12 12 12
10 10 11 11 10 10 11 11 12 12 12 12 11 11 12 12 12 13 13 13 13 12 12 12 12 13 13 13 13 13 12 12 12 12 12 12 12 12 12 12 12 12
10 10 10 10 10 10 11 11 11 11 11 12 12 11 12 12 12 12 13 13 13 13 12 12 12 12 12 13 13 13 12 12 12 12 12 12 12 12 12 12 12 12
10 10 10 10 10 10 10 11 10 10 11 12 12 12 12 12 12 12 12 13 13 13 12 12 12 12 12 12 13 13 12 12 12 12 12 12 12 12 12 12 12 11
10 10 10 10 10 10 10 10 10 10 11 12 12 12 12 13 13 12 12 12 12 12 12 13 13 13 12 12 13 13 13 12 12 12 12 12 12 12 12 12 11 11
9 9 10 10 10 10 11 11 11 11 11 11 11 12 12 12 12 12 12 12 12 12 12 12 13 13 12 12 12 13 13 12 12 12 12 12 12 12 12 11 11 12
9 9 9 9 10 10 10 11 12 12 11 11 11 11 12 12 12 12 12 12 12 12 12 12 12 13 12 12 12 12 12 12 12 12 12 12 11 11 11 11 11 12
8 8 9 9 10 10 10 11 11 11 12 11 11 11 11 12 12 12 12 12 12 12 12 12 13 13 12 12 12 12 12 12 12 12 12 11 11 11 11 11 11 11
8 8 8 9 9 10 10 10 11 11 11 12 11 11 11 11 12 12 12 11 11 12 12 12 12 13 13 12 12 12 12 11 11 11 11 11 11 11 11 11 11 11
8 8 8 8 9 9 9 10 10 11 11 11 11 11 11 11 11 11 11 11 12 12 12 12 12 13 12 12 12 11 11 11 11 11 11 11 11 11 11 11 11 11
7 7 8 8 8 9 9 9 10 10 11 11 11 11 11 11 11 11 11 11 11 12 11 11 11 12 12 12 12 11 11 11 11 11 11 11 11 11 11 11 11 11
6 6 7 7 8 8 9 9 9 9 10 10 10 10 10 10 11 11 11 11 11 11 11 11 11 11 12 12 11 11 11 11 11 11 11 11 11 11 11 11 11 11
5 5 6 7 7 7 8 8 9 9 9 9 9 10 10 10 10 11 11 11 11 11 11 11 11 11 11 12 11 11 11 11 11 11 11 11 11 11 11 11 11 11
4 5 5 5 6 6 7 7 7 8 8 8 8 8 9 9 10 10 10 10 10 11 11 11 11 11 11 11 11 11 11 11 11 11 11 11 11 11 11 11 11 11
4 4 4 4 5 5 6 6 6 6 6 7 7 7 7 8 9 9 10 10 10 10 10 10 11 11 11 11 11 11 11 11 11 11 11 11 11 11 11 11 11 11
3 3 3 4 4 4 4 4 5 5 5 5 5 6 6 7 7 7 8 8 9 10 10 10 10 10 11 11 11 11 11 11 11 11 11 11 12 11 11 11 11 11
3 3 3 3 3 3 3 3 3 3 3 4 4 4 5 5 5 6 6 7 7 8 8 9 9 10 10 11 11 11 10 11 11 11 11 11 11 12 11 11 11 11
2 2 2 2 3 3 3 3 3 3 3 3 3 3 3 4 4 4 5 5 6 6 6 7 8 8 9 10 10 10 10 10 10 11 11 11 11 11 11 11 11 11

ECMWFNIL_850_temp_060.txt.gz
Temp
11 11 11 11 11 12 12 12 12 12 12 12 12 12 13 13 13 12 13 13 13 13 12 12 12 12 12 12 12 12 12 11 12 13 13 12 12 12 12 12 12 11
11 11 11 11 11 11 12 12 12 12 12 12 12 12 13 12 12 12 13 13 13 12 12 12 12 12 12 12 12 12 12 12 12 12 13 13 12 12 12 12 12 11
11 11 11 11 11 11 11 11 11 12 11 12 12 12 12 12 12 12 13 13 13 12 12 12 12 12 12 12 12 13 13 12 12 12 12 12 12 12 12 12 12 12
11 11 11 11 11 11 11 11 12 12 11 12 12 12 12 12 12 12 12 12 12 12 12 12 12 12 12 12 13 13 13 12 12 12 12 11 11 12 12 13 12 12
11 11 11 11 11 11 11 11 11 12 11 11 12 12 12 12 12 12 12 12 12 12 12 12 12 12 13 13 13 13 13 12 12 11 11 11 12 12 12 12 12 12
10 11 11 11 11 11 11 11 11 11 11 11 11 12 12 12 12 12 12 12 12 12 12 11 12 12 13 13 13 13 13 13 12 11 11 11 11 12 12 12 12 11
9 10 10 11 11 11 11 11 11 11 11 11 11 12 12 12 12 12 12 12 12 12 12 11 12 12 12 12 13 13 13 13 12 11 11 12 12 12 12 12 11 11
9 9 10 10 11 11 11 11 11 11 11 11 11 11 11 12 12 12 12 12 12 11 12 11 12 12 12 13 13 13 13 13 12 12 12 12 12 12 12 12 11 11
10 10 10 10 10 11 11 10 11 11 11 11 11 11 11 11 11 12 12 12 12 12 12 12 11 11 12 13 13 13 13 13 12 12 12 12 12 12 12 12 12 11
10 10 10 10 10 10 10 10 10 11 11 11 11 11 11 11 11 11 11 11 11 12 12 12 11 11 12 13 13 13 13 13 12 12 12 12 12 12 12 12 12 12
9 9 9 10 10 10 10 10 10 10 11 11 11 11 11 11 11 11 11 11 11 12 12 12 11 12 12 13 13 13 13 12 12 12 12 12 12 12 12 12 12 12
8 8 9 9 10 10 10 10 10 10 10 10 10 10 11 11 11 11 11 11 12 12 12 12 11 12 12 13 13 13 13 13 13 13 13 12 12 12 12 11 11 11
7 7 8 9 9 10 10 10 10 10 10 10 10 10 11 11 11 11 11 11 11 11 11 11 11 11 12 12 13 13 13 13 13 13 13 13 12 12 12 12 12 11
6 7 7 8 8 9 9 10 10 10 10 10 10 10 11 11 11 11 11 11 11 11 12 12 12 11 11 12 12 13 13 13 13 13 13 12 12 12 12 12 12 11
5 6 6 7 8 8 9 9 10 10 10 10 10 11 11 11 11 11 11 11 11 11 12 12 12 11 11 12 12 13 13 13 13 12 12 12 12 12 12 12 12 12
5 5 5 6 7 8 8 9 9 10 10 10 10 11 11 11 12 11 11 11 11 11 12 12 12 11 11 12 12 12 13 13 13 13 12 12 12 12 12 12 12 12
4 4 4 5 6 7 8 8 9 9 10 10 10 11 12 12 12 12 11 11 11 11 11 11 11 11 11 12 12 12 12 12 12 13 12 12 12 12 12 12 12 12
4 4 4 4 5 6 7 8 8 9 9 9 10 10 11 11 12 12 12 11 11 11 11 11 11 11 11 11 11 11 11 11 11 12 12 13 13 12 12 12 12 12
3 3 3 4 4 5 6 7 7 8 8 9 9 9 10 10 11 11 11 11 11 11 11 11 11 11 11 11 11 11 11 11 11 11 11 12 12 12 12 12 12 12
3 3 3 3 4 4 5 6 6 7 7 8 8 8 9 9 10 10 10 11 11 11 11 11 11 11 11 10 11 11 11 11 11 11 11 11 11 11 12 12 12 12
3 3 3 3 3 3 4 5 5 6 6 7 7 7 8 8 9 9 9 10 10 11 11 10 11 11 11 10 10 10 10 11 11 11 11 11 11 11 11 11 11 11
2 2 2 2 3 3 3 4 5 5 5 5 5 6 6 7 8 8 8 9 9 9 10 10 11 11 11 11 10 10 10 10 11 11 11 11 11 11 11 11 11 11
2 2 2 2 2 2 3 3 3 3 4 4 4 4 5 6 6 7 7 8 8 8 9 9 10 10 10 10 11 10 11 11 11 11 11 11 11 11 11 11 11 11
2 2 2 2 2 2 2 2 2 2 2 3 3 3 4 4 4 5 5 6 6 7 7 8 8 9 10 10 10 11 11 11 11 10 10 11 11 11 11 11 11 11
2 2 1 1 2 2 2 2 2 2 2 2 2 2 2 3 3 4 4 4 5 5 6 7 7 8 9 9 10 10 11 11 11 10 10 11 11 11 11 11 11 11
2 2 1 1 1 1 1 1 1 1 2 2 2 2 2 3 3 3 3 3 4 4 5 6 6 7 8 8 9 9 10 10 10 9 10 10 11 11 11 11 11 11

ECMWFNIL_850_temp_063.txt.gz
Temp
10 11 11 11 11 12 12 12 12 13 13 13 13 13 13 12 12 13 13 13 13 13 13 13 12 12 12 12 12 13 13 13 13 13 13 12 12 12 12 13 13 12
10 10 11 11 11 11 12 12 12 12 12 13 13 13 13 13 13 13 13 13 13 12 13 13 13 12 12 13 13 13 13 13 13 13 13 13 12 12 12 13 13 13
10 10 10 10 10 11 11 12 12 12 12 12 13 13 13 13 12 13 13 13 12 12 13 13 13 12 12 13 13 13 13 13 13 13 13 13 13 13 13 12 12 12
10 10 10 10 10 10 11 11 12 12 12 12 13 13 13 12 12 12 13 13 12 12 12 13 13 12 12 12 12 13 13 13 13 13 13 13 13 13 13 13 12 12
10 10 10 10 11 10 10 11 11 12 12 12 12 13 13 12 12 12 12 13 12 12 12 13 12 12 12 12 12 12 13 13 13 13 13 13 13 13 13 13 13 13
10 10 10 10 10 10 10 10 11 11 12 12 12 12 12 12 12 12 12 12 12 12 12 12 12 12 12 12 12 12 12 12 13 13 13 13 13 13 13 13 13 13
11 10 10 10 10 10 10 10 10 10 11 11 11 12 12 12 12 11 11 11 12 12 12 12 12 12 12 12 12 12 12 12 12 13 13 13 13 13 13 13 13 12
10 10 10 10 10 10 10 10 10 10 11 11 11 12 12 12 11 11 11 11 12 12 12 12 12 12 12 12 12 12 12 12 12 12 13 13 13 13 13 12 12 12
9 10 10 10 10 10 10 10 10 10 10 10 11 11 12 11 11 11 11 11 11 12 12 12 12 12 12 12 12 12 12 12 12 12 12 13 13 12 12 12 12 12
7 8 9 8 8 9 10 10 10 10 10 10 10 11 11 11 11 11 11 11 11 12 12 12 12 12 12 12 12 12 12 12 12 12 12 12 12 12 12 12 12 12
6 7 7 7 7 8 9 9 10 10 10 10 10 11 11 11 11 11 11 11 11 11 12 11 12 12 12 12 12 12 12 12 12 12 12 12 12 12 12 13 12 12
6 6 6 6 6 8 8 9 9 10 10 10 10 11 11 10 10 10 11 11 11 11 11 11 12 12 12 11 12 12 12 12 12 12 12 12 12 12 12 13 12 12
6 5 5 5 6 6 8 8 9 9 10 10 10 10 10 10 10 10 10 11 11 11 12 12 12 12 12 12 12 12 12 12 11 12 12 12 12 12 12 12 12 12
6 5 5 5 5 5 7 8 8 9 9 10 10 10 10 10 10 10 11 11 11 11 11 12 12 11 11 11 12 12 12 12 11 11 12 12 12 12 12 12 12 12
6 5 6 5 5 5 6 7 8 8 9 9 9 10 10 10 10 10 11 11 11 11 11 11 11 11 11 11 12 12 12 12 11 11 12 12 12 12 12 12 12 12
5 5 5 5 5 5 5 5 7 8 8 8 9 9 10 10 9 10 10 11 11 11 11 11 11 11 11 11 11 12 12 12 11 11 12 12 12 12 12 12 12 12
5 5 5 5 5 5 4 4 5 7 7 8 8 9 9 9 9 9 9 10 10 11 11 11 12 11 11 11 11 12 12 12 12 12 12 12 12 12 12 12 12 12
4 4 4 4 4 4 4 4 4 5 7 7 7 7 8 8 9 9 9 9 9 10 10 11 11 11 11 11 11 12 12 12 12 12 12 12 11 12 12 13 13 13
3 3 3 4 4 4 4 3 3 4 5 6 6 6 7 7 8 8 8 8 9 9 9 11 11 11 11 12 11 11 11 11 11 11 12 12 12 12 12 12 13 13
4 3 3 3 3 3 3 3 3 3 3 4 5 5 6 6 7 7 7 8 8 8 8 10 10 11 11 11 11 11 11 11 11 11 11 12 12 12 12 12 12 12
4 3 3 3 3 3 3 3 3 3 3 3 3 3 4 5 6 6 6 7 7 7 7 8 9 10 10 11 11 11 11 11 11 11 11 11 12 12 12 11 12 11
4 4 3 3 3 2 2 2 2 2 2 2 2 2 3 3 4 5 5 6 6 6 7 7 8 9 9 10 10 11 11 11 11 11 11 11 11 12 12 11 11 11
4 4 4 3 3 2 2 2 2 2 2 2 2 2 2 2 2 3 4 4 5 5 6 6 7 7 8 9 9 10 10 11 11 11 11 11 11 11 11 11 11 11
3 3 3 4 3 3 2 2 2 2 2 2 2 2 2 2 2 2 2 3 4 4 5 5 6 6 7 8 8 9 10 10 10 10 10 10 10 10 11 10 11 11
3 3 3 3 3 3 3 3 2 2 2 2 2 2 2 2 2 2 2 2 2 3 4 4 5 5 6 7 7 8 9 9 9 10 10 10 10 10 10 10 10 11
3 3 3 3 3 3 3 3 3 2 2 2 2 1 1 1 1 1 1 1 1 2 3 3 4 4 5 6 6 7 8 8 8 9 9 9 9 10 10 10 11 11

ECMWFNIL_850_temp_069.txt.gz
Temp
8 8 8 9 9 10 10 10 10 11 11 11 12 13 13 13 12 12 12 12 12 12 12 12 12 12 12 12 12 12 12 12 12 12 12 13 13 12 12 12 12 12
9 8 7 8 8 9 10 10 10 10 11 11 11 12 12 11 11 11 11 12 12 12 12 12 12 12 12 12 12 12 12 12 12 12 12 12 12 12 12 12 12 12
9 8 7 7 7 8 8 9 9 9 10 10 10 10 10 10 10 11 11 11 12 12 12 12 12 12 12 12 12 12 12 12 12 12 12 12 12 12 12 12 12 12
7 7 7 7 7 7 7 7 8 8 8 9 9 9 9 9 10 10 10 11 11 11 12 12 12 12 11 11 11 11 11 11 11 11 11 12 12 12 12 12 12 12
6 6 6 6 6 6 6 6 7 7 8 8 8 9 9 9 9 10 10 10 10 11 12 12 12 11 11 11 11 11 11 11 11 11 11 12 12 12 12 12 12 12
6 5 5 5 6 6 5 6 6 7 7 8 8 9 9 9 9 9 10 10 10 11 11 11 11 11 11 10 11 11 11 11 11 11 11 11 11 12 12 12 12 12
6 6 5 5 6 6 6 6 6 7 7 8 8 9 9 9 9 9 9 9 10 10 10 10 10 11 10 10 11 11 11 11 11 11 11 11 11 11 12 12 12 12
6 5 5 5 5 6 6 6 6 7 7 7 8 9 9 9 9 9 9 9 9 10 10 10 10 10 11 11 11 11 11 11 11 11 11 11 11 11 11 12 12 12
5 5 5 5 5 5 5 6 6 6 6 7 7 8 8 9 9 9 9 9 9 9 10 10 10 10 11 11 11 11 11 11 11 11 11 11 11 11 11 11 11 12
5 5 5 4 4 4 5 6 6 6 6 6 7 7 8 8 8 9 8 8 8 9 10 10 10 10 10 11 11 11 11 11 11 11 11 11 11 11 11 11 11 12
5 5 4 4 4 4 4 5 5 6 5 5 6 6 7 7 8 8 8 8 8 9 9 9 9 10 10 11 11 11 11 11 11 11 11 11 11 11 11 11 12 12
4 4 4 3 3 3 3 3 4 5 5 5 5 6 6 6 7 7 7 7 8 8 9 9 9 9 10 10 11 11 11 11 11 11 11 11 11 11 11 11 12 12
4 4 4 3 3 2 2 2 3 3 3 4 4 5 5 5 5 6 6 6 7 7 8 8 8 8 9 10 11 11 11 11 11 11 11 11 11 11 11 11 12 12
4 4 4 3 3 2 2 2 2 2 2 3 3 4 4 4 4 5 5 5 6 6 6 7 7 8 9 10 11 11 11 11 11 11 11 11 11 11 11 11 12 12
4 4 4 4 3 3 3 3 2 2 2 2 2 3 3 3 4 4 4 5 5 5 6 6 7 7 7 8 9 9 10 10 11 11 11 11 11 11 11 11 11 11
4 4 4 4 4 3 3 3 3 3 2 2 2 2 2 2 3 4 4 4 4 5 5 6 6 6 6 6 7 8 9 9 10 10 10 10 11 11 11 11 11 11
4 4 4 3 3 3 3 3 3 3 3 3 3 2 1 1 2 2 3 3 4 4 4 5 5 5 5 6 7 7 8 9 9 9 10 10 10 11 11 10 11 11
4 4 3 3 3 3 3 3 3 2 3 3 3 2 2 1 1 0 1 2 3 3 4 4 4 5 5 6 7 7 8 8 9 9 9 9 10 10 10 10 10 11
3 3 3 3 3 3 3 3 2 2 2 2 2 2 2 1 1 -0 -0 0 1 2 2 3 4 4 5 5 6 7 7 8 8 8 8 9 9 9 10 10 10 11
3 3 3 3 3 3 2 2 2 2 2 2 2 1 1 1 0 -0 -0 -0 -0 0 1 2 3 3 4 5 5 6 7 7 8 8 8 8 8 9 9 9 10 11
3 3 3 3 2 2 2 2 2 2 2 2 1 1 1 1 -0 -0 -0 -0 -0 -0 -0 1 1 2 3 4 4 5 6 6 7 7 7 7 8 8 8 9 9 10
3 3 2 2 2 2 2 2 2 2 1 1 1 1 1 0 -0 -1 -0 0 0 -0 -0 0 0 1 2 3 3 4 5 5 6 6 6 7 7 7 8 8 9 9
3 2 2 2 2 2 2 2 2 2 1 1 1 1 0 -0 -0 -1 -0 -0 0 0 0 0 0 1 1 2 3 3 4 4 5 5 5 5 6 6 7 7 8 8
2 2 2 2 2 2 2 2 2 2 1 1 1 0 0 -0 -0 -0 -1 -1 -0 -0 -0 -0 -0 0 0 1 2 2 3 3 3 4 4 4 5 5 5 6 6 7
3 2 2 2 2 2 2 2 2 2 1 1 1 0 0 0 -0 -0 -0 -1 -1 -0 -0 -0 -0 -0 -0 0 1 1 2 2 2 3 4 4 4 4 4 5 5 5
3 3 3 2 2 2 2 2 2 2 1 1 1 1 0 0 -0 -1 -0 -1 -1 -0 -0 -0 -1 -0 -0 -0 0 0 0 1 1 2 2 2 3 3 3 4 4 5

ECMWFNIL_850_temp_072.txt.gz
Temp
12 12 11 11 11 11 11 11 10 10 10 10 10 9 10 10 10 10 10 10 10 11 11 12 12 12 12 13 12 12 12 12 12 11 11 11 11 11 11 11 12 12
11 11 11 11 12 12 12 11 11 11 10 10 10 10 10 10 10 10 10 10 10 11 12 12 12 12 13 13 13 13 12 12 12 11 11 11 11 11 11 11 11 12
9 10 11 12 12 12 12 12 11 11 10 10 10 10 10 10 10 10 10 10 10 11 12 12 12 13 13 13 13 12 12 11 11 11 11 11 11 11 11 11 11 11
8 9 10 11 11 10 10 10 10 10 10 9 9 9 9 9 9 9 9 9 9 10 11 11 12 12 12 12 11 11 11 11 11 11 10 11 11 11 11 11 11 11
6 7 9 9 8 7 7 8 8 8 8 8 8 8 8 8 9 9 8 8 9 9 10 10 10 10 11 10 10 10 10 11 11 11 10 10 11 11 11 11 11 11
5 6 7 7 6 5 6 6 6 6 7 7 7 8 8 8 8 8 8 8 8 8 9 9 9 10 10 10 10 10 10 11 11 11 10 10 10 10 10 10 11 11
5 5 6 6 5 5 5 5 5 5 6 6 7 8 8 8 8 8 8 8 8 8 8 8 9 9 10 10 10 10 10 10 11 11 11 10 10 10 10 10 10 11
4 4 5 5 5 5 5 4 4 5 5 6 6 7 7 7 8 8 8 8 8 7 7 8 8 8 9 9 9 10 10 10 10 11 10 10 10 10 10 10 10 10
4 4 4 5 5 5 4 4 4 4 5 5 6 6 6 7 7 7 7 7 7 7 7 7 8 8 8 8 8 9 10 10 10 10 10 10 10 10 10 10 10 11
5 4 4 4 4 4 4 3 3 4 4 4 5 5 5 6 6 6 7 7 7 7 7 7 7 7 8 8 8 9 9 9 9 9 10 10 10 10 10 10 11 11
4 4 4 4 4 3 3 2 2 3 3 4 4 5 5 5 5 6 6 6 6 6 6 6 6 7 8 8 8 8 9 9 9 9 9 10 10 10 10 11 11 11
4 4 4 4 4 3 3 2 2 3 3 3 3 4 4 5 5 5 5 5 5 5 5 6 6 7 7 8 8 8 9 9 9 9 9 10 10 10 10 10 10 11
4 4 4 4 3 3 3 3 3 3 3 3 3 3 4 4 4 4 4 4 5 5 5 5 6 6 7 7 8 8 9 9 9 9 9 9 10 10 10 10 10 10
3 3 3 3 3 3 3 3 3 3 3 3 3 3 3 3 3 3 4 4 4 4 4 5 5 6 6 7 7 8 8 8 8 9 9 9 9 9 10 10 10 10
3 3 3 3 3 3 2 2 2 2 3 3 3 3 2 2 2 3 3 4 4 4 4 4 5 5 4 5 6 7 7 8 8 8 9 9 9 9 10 10 10 10
3 3 3 3 3 3 2 2 2 2 2 3 3 2 2 2 2 2 3 3 3 3 3 4 4 4 4 4 4 5 6 7 7 7 8 8 9 9 9 10 10 10
3 3 3 3 3 3 2 2 1 1 2 2 2 2 1 1 1 2 2 2 2 3 3 3 3 3 3 4 4 4 5 6 6 7 7 8 8 8 9 9 10 10
3 3 3 3 3 3 2 2 2 1 2 2 2 2 1 1 1 1 1 1 2 2 2 3 3 3 3 3 4 4 4 5 5 5 6 7 7 7 8 9 9 9
3 3 3 3 3 3 3 2 2 2 2 2 1 1 1 1 1 1 1 1 1 1 2 2 2 2 3 3 3 3 4 4 4 4 5 6 6 7 8 8 9 9
3 2 2 2 3 3 3 2 2 2 2 2 1 1 1 0 1 1 1 0 0 1 1 1 1 2 2 3 3 3 3 3 4 4 4 4 5 5 6 7 7 8
2 2 2 2 2 3 3 2 2 2 2 1 1 1 0 0 0 0 1 0 0 0 0 1 1 1 1 2 2 3 3 3 3 3 3 3 4 4 5 5 6 6
2 2 2 2 2 2 2 2 2 2 2 1 1 1 0 0 0 0 0 0 0 0 0 0 0 0 1 1 2 2 3 3 3 3 3 3 3 3 4 4 4 5
2 2 2 2 2 2 2 2 2 2 1 1 1 1 1 0 0 0 0 1 1 0 0 0 0 0 0 0 1 2 2 2 3 3 3 3 3 3 3 3 3 3
2 2 2 2 2 2 2 2 2 1 1 1 1 1 1 0 0 1 1 1 1 1 0 -0 -0 -0 -0 0 0 1 1 1 2 2 2 2 2 2 2 2 3 3
3 3 3 2 2 2 2 2 2 1 1 1 1 1 0 0 0 1 1 1 1 1 1 0 -0 -0 -0 -0 0 0 0 1 1 1 1 2 2 2 2 2 2 2
3 3 3 3 2 2 2 2 2 1 1 1 1 1 0 0 0 0 1 0 0 0 0 0 -0 -0 -0 -0 -0 0 0 0 1 1 1 1 1 1 1 2 2 2

ECMWFNIL_850_temp_075.txt.gz
Temp
9 9 10 10 10 9 9 9 8 8 8 8 8 8 8 8 8 9 9 9 9 9 9 9 10 10 11 11 11 12 12 13 13 12 11 11 10 10 10 10 10 11
9 10 10 10 9 9 8 8 8 8 8 7 7 7 7 8 8 8 8 8 8 8 8 9 9 10 10 11 11 12 12 13 12 12 11 11 10 10 10 10 10 10
9 10 10 9 8 8 7 7 7 7 7 7 7 7 7 8 8 8 8 8 8 8 8 8 8 9 9 10 11 11 12 12 12 12 11 11 11 11 10 10 10 10
9 9 9 8 7 6 6 6 7 7 7 7 7 7 7 7 7 8 8 8 8 8 7 7 7 8 9 10 11 11 12 11 11 11 11 11 11 10 10 10 10 10
8 9 8 7 6 5 6 6 7 7 6 7 7 7 7 7 7 8 7 7 7 7 7 7 7 7 8 9 10 10 11 11 11 11 11 11 11 10 10 9 9 10
8 8 7 6 5 5 6 7 7 7 6 6 7 6 7 7 7 7 7 7 7 7 7 7 7 7 7 8 8 9 10 10 10 11 11 12 11 10 9 9 9 9
8 7 6 5 5 6 7 7 7 7 7 6 6 6 6 6 6 7 7 7 6 6 6 6 6 6 7 7 8 8 9 9 9 10 11 11 11 10 9 9 9 9
7 6 6 6 6 7 7 7 7 7 7 6 7 7 6 6 6 7 7 6 6 6 6 6 6 7 7 7 8 8 8 9 9 9 10 10 10 10 9 9 9 9
7 6 6 6 6 6 6 6 6 6 6 6 7 6 6 7 7 6 6 6 6 6 6 6 7 7 7 7 7 8 8 8 9 9 9 9 9 9 8 9 10 10
6 5 5 5 5 5 6 6 6 6 6 6 6 6 6 6 6 6 6 6 6 6 6 6 6 6 7 7 7 7 7 8 8 8 9 9 8 8 8 9 10 10
4 4 4 4 4 5 5 5 5 6 6 6 6 6 6 6 6 6 6 6 6 6 6 6 6 6 6 6 7 7 7 7 8 8 8 8 8 8 8 9 9 10
3 4 4 4 4 4 4 4 5 5 5 5 5 6 6 6 6 5 5 5 5 5 5 5 5 5 6 6 6 6 7 7 7 8 8 8 8 8 8 9 9 9
3 3 3 3 3 4 4 4 4 4 5 5 5 5 5 5 5 5 5 5 4 4 4 4 5 5 5 5 5 6 6 6 7 7 8 8 7 8 8 8 9 9
3 3 3 3 3 3 4 4 4 4 4 4 4 5 5 5 5 5 4 4 4 4 4 4 4 5 5 5 5 5 5 6 6 7 7 7 7 7 7 7 8 9
3 2 2 3 3 3 3 3 4 4 4 4 4 4 4 4 4 4 4 4 4 4 4 4 4 4 3 3 4 4 4 5 5 6 6 6 6 6 6 6 7 8
2 2 2 3 3 3 3 4 4 4 4 4 4 4 4 4 4 4 4 4 4 4 4 4 4 3 3 3 3 3 3 4 4 5 5 4 5 5 5 6 6 7
2 3 3 3 3 3 3 3 3 3 4 4 4 4 4 4 4 4 5 4 4 4 3 3 3 3 2 3 3 3 3 3 3 4 4 4 3 4 4 5 5 6
3 3 3 3 3 3 3 3 3 3 3 3 3 3 4 4 4 4 4 4 4 4 3 3 2 2 2 2 2 2 3 3 3 3 3 3 3 3 3 4 5 5
3 3 3 3 3 3 3 2 2 2 2 2 2 2 3 3 4 4 4 4 4 3 3 2 2 2 2 2 2 2 2 2 3 3 3 3 3 3 3 3 4 4
3 3 3 3 2 2 2 2 2 2 1 1 1 2 2 3 3 4 4 4 3 3 2 2 1 1 1 1 1 2 2 2 2 2 2 2 2 2 2 3 3 3
3 3 3 2 2 2 2 2 1 1 1 1 1 2 2 2 3 3 3 3 3 2 2 1 1 1 1 1 1 1 1 2 2 2 2 2 2 2 2 2 2 3
2 2 2 2 2 2 2 1 1 1 1 1 1 2 2 2 2 3 3 3 3 2 2 1 1 1 0 0 1 1 1 1 1 2 2 2 2 2 1 1 1 2
2 2 2 2 2 2 1 1 1 1 1 1 1 2 2 2 2 2 2 2 2 2 1 1 0 0 0 0 0 0 0 1 1 1 1 1 1 1 1 1 1 1
2 2 2 2 2 2 1 1 1 1 1 1 1 1 1 1 1 1 2 2 2 2 1 0 -0 -0 -0 -0 -0 -0 -0 0 0 1 1 1 1 1 1 1 0 0
2 2 2 2 2 2 2 1 1 1 1 1 1 1 1 1 1 1 1 1 1 1 1 0 -0 -0 -0 -0 -0 -0 -0 -1 -0 0 0 0 1 1 1 0 0 0
2 2 2 2 2 2 2 1 1 1 1 1 1 1 1 1 1 1 1 1 1 1 0 0 -0 -1 -1 -0 -1 -1 -1 -1 -1 -0 -0 -0 -0 -0 0 0 -0 -0